Terminal Aerodrome Forecast
Issued by NWS

Home | Current Version | Previous Version | Text Only | Print | Product List | Glossary On
Versions: 1 2 3 4 5 6 7 8 9 10 11 12
000
FTUS45 KRIW 301100
TAFWRL
TAF
KWRL 301122Z 3012/3112 VRB05KT P6SM VCFG FEW005 BKN250
      TEMPO 3012/3015 4SM BR SCT005
     FM301600 VRB06KT P6SM FEW050 SCT250
     FM310200 13006KT P6SM SCT150=

USA.gov is the U.S. government's official web portal to all federal, state and local government web resources and services.